Back to catalog

DELTA 1 DEB

AliveLEO
NORAD 720·DEBRIS·🇺🇸 United States

Launched Dec 21, 1963 from Vandenberg Space Force Base

Loading…

Next Passes (next 24 hours)

TLE

FreshSource: Space-Track

Epoch: Sep 14, 2026, 03:12 UTC

1 00720U 63054C   26257.13366182  .00000264  00000-0  10294-3 0  9990
2 00720  58.4712 171.3568 0107473 165.4836 194.9322 14.50763629294394

Track DELTA 1 DEB in real time with AllMySat

Download on the App Store